Time,TemperatureF,DewpointF,PressureIn,WindDirection,WindDirectionDegrees,WindSpeedMPH,WindSpeedGustMPH,Humidity,HourlyPrecipIn,Conditions,Clouds,dailyrainin,SoftwareType,DateUTC
2013-02-12 00:01:00,51.9,50.2,29.95,NNE,23,0.0,7.0,94,0.00,,,0.00,WUHU216DAVISVP2,2013-02-12 06:01:00,
2013-02-12 00:06:00,51.9,50.2,29.96,North,6,1.0,7.0,94,0.00,,,0.00,WUHU216DAVISVP2,2013-02-12 06:06:00,
2013-02-12 00:11:00,51.8,50.1,29.94,North,357,2.0,8.0,94,0.00,,,0.00,WUHU216DAVISVP2,2013-02-12 06:11:00,
2013-02-12 00:16:00,51.7,50.0,29.95,ENE,58,0.0,9.0,94,0.00,,,0.00,WUHU216DAVISVP2,2013-02-12 06:16:00,
2013-02-12 00:21:00,51.7,50.0,29.95,NNW,348,0.0,9.0,94,0.00,,,0.00,WUHU216DAVISVP2,2013-02-12 06:21:00,
2013-02-12 00:26:00,51.7,50.0,29.95,NE,50,3.0,9.0,94,0.00,,,0.00,WUHU216DAVISVP2,2013-02-12 06:26:00,
2013-02-12 00:31:00,51.6,49.9,29.94,NE,49,2.0,6.0,94,0.00,,,0.00,WUHU216DAVISVP2,2013-02-12 06:31:00,
2013-02-12 00:36:00,51.6,49.9,29.94,NNE,14,2.0,6.0,94,0.00,,,0.00,WUHU216DAVISVP2,2013-02-12 06:36:00,
2013-02-12 00:41:00,51.5,50.1,29.94,NNW,340,4.0,6.0,95,0.00,,,0.00,WUHU216DAVISVP2,2013-02-12 06:41:00,
2013-02-12 00:46:00,51.5,50.1,29.94,NNE,17,3.0,6.0,95,0.00,,,0.00,WUHU216DAVISVP2,2013-02-12 06:46:00,
2013-02-12 00:51:00,51.5,50.1,29.94,NNE,18,5.0,6.0,95,0.00,,,0.00,WUHU216DAVISVP2,2013-02-12 06:51:00,
2013-02-12 00:56:00,51.5,50.1,29.93,NE,37,1.0,6.0,95,0.00,,,0.00,WUHU216DAVISVP2,2013-02-12 06:56:00,
2013-02-12 01:01:00,51.5,50.1,29.94,NE,37,1.0,5.0,95,0.00,,,0.00,WUHU216DAVISVP2,2013-02-12 07:01:00,
2013-02-12 01:06:00,51.5,50.1,29.93,NE,45,3.0,5.0,95,0.00,,,0.00,WUHU216DAVISVP2,2013-02-12 07:06:00,
2013-02-12 01:11:00,51.5,50.1,29.93,ENE,58,1.0,6.0,95,0.00,,,0.00,WUHU216DAVISVP2,2013-02-12 07:11:00,
2013-02-12 01:16:00,51.5,50.1,29.93,NE,37,6.0,7.0,95,0.00,,,0.00,WUHU216DAVISVP2,2013-02-12 07:16:00,
2013-02-12 01:21:00,51.5,50.1,29.93,NE,56,4.0,7.0,95,0.00,,,0.00,WUHU216DAVISVP2,2013-02-12 07:21:00,
2013-02-12 01:26:00,51.5,50.1,29.93,ENE,60,0.0,7.0,95,0.00,,,0.00,WUHU216DAVISVP2,2013-02-12 07:26:00,
2013-02-12 01:31:00,51.5,50.1,29.93,NE,55,2.0,7.0,95,0.00,,,0.00,WUHU216DAVISVP2,2013-02-12 07:31:00,
2013-02-12 01:36:00,51.5,50.1,29.93,North,2,1.0,7.0,95,0.00,,,0.00,WUHU216DAVISVP2,2013-02-12 07:36:00,
2013-02-12 01:41:00,51.5,50.1,29.92,NNE,27,1.0,5.0,95,0.00,,,0.00,WUHU216DAVISVP2,2013-02-12 07:41:00,
2013-02-12 01:46:00,51.5,50.1,29.93,NNE,33,2.0,9.0,95,0.00,,,0.00,WUHU216DAVISVP2,2013-02-12 07:46:00,
2013-02-12 01:51:00,51.5,50.1,29.92,NNE,26,2.0,9.0,95,0.00,,,0.00,WUHU216DAVISVP2,2013-02-12 07:51:00,
2013-02-12 01:56:00,51.5,50.1,29.92,North,6,4.0,8.0,95,0.00,,,0.00,WUHU216DAVISVP2,2013-02-12 07:56:00,
2013-02-12 02:01:00,51.6,50.2,29.92,NNE,14,1.0,8.0,95,0.00,,,0.00,WUHU216DAVISVP2,2013-02-12 08:01:00,
2013-02-12 02:06:00,51.6,50.2,29.91,ENE,61,0.0,5.0,95,0.00,,,0.00,WUHU216DAVISVP2,2013-02-12 08:06:00,
2013-02-12 02:11:00,51.6,50.2,29.91,NE,43,1.0,5.0,95,0.00,,,0.00,WUHU216DAVISVP2,2013-02-12 08:11:00,
2013-02-12 02:16:00,51.6,50.2,29.92,NNE,25,0.0,7.0,95,0.00,,,0.00,WUHU216DAVISVP2,2013-02-12 08:16:00,
2013-02-12 02:21:00,51.6,50.5,29.92,ENE,58,2.0,7.0,96,0.00,,,0.00,WUHU216DAVISVP2,2013-02-12 08:21:00,
2013-02-12 02:26:00,51.7,50.6,29.92,NNE,32,1.0,7.0,96,0.00,,,0.00,WUHU216DAVISVP2,2013-02-12 08:26:00,
2013-02-12 02:31:00,51.7,50.6,29.92,NNE,31,3.0,6.0,96,0.00,,,0.00,WUHU216DAVISVP2,2013-02-12 08:31:00,
2013-02-12 02:36:00,51.7,50.6,29.91,NNE,30,2.0,6.0,96,0.00,,,0.00,WUHU216DAVISVP2,2013-02-12 08:36:00,
2013-02-12 02:41:00,51.7,50.6,29.91,NE,36,1.0,5.0,96,0.00,,,0.00,WUHU216DAVISVP2,2013-02-12 08:41:00,
2013-02-12 02:46:00,51.7,50.6,29.91,NE,41,1.0,5.0,96,0.00,,,0.00,WUHU216DAVISVP2,2013-02-12 08:46:00,
2013-02-12 02:51:00,51.7,50.6,29.91,NNE,20,1.0,5.0,96,0.00,,,0.00,WUHU216DAVISVP2,2013-02-12 08:51:00,
2013-02-12 02:56:00,51.7,50.6,29.90,NE,39,3.0,5.0,96,0.00,,,0.00,WUHU216DAVISVP2,2013-02-12 08:56:00,
2013-02-12 03:01:00,51.8,50.7,29.90,North,10,0.0,5.0,96,0.00,,,0.00,WUHU216DAVISVP2,2013-02-12 09:01:00,
2013-02-12 03:06:00,51.7,50.6,29.90,NNE,27,0.0,5.0,96,0.00,,,0.00,WUHU216DAVISVP2,2013-02-12 09:06:00,
2013-02-12 03:11:00,51.8,50.7,29.90,NE,52,1.0,5.0,96,0.00,,,0.00,WUHU216DAVISVP2,2013-02-12 09:11:00,
2013-02-12 03:16:00,51.8,50.7,29.90,NNE,20,3.0,7.0,96,0.00,,,0.00,WUHU216DAVISVP2,2013-02-12 09:16:00,
2013-02-12 03:21:00,51.7,50.6,29.90,NE,53,0.0,7.0,96,0.00,,,0.00,WUHU216DAVISVP2,2013-02-12 09:21:00,
2013-02-12 03:26:00,51.7,50.6,29.89,ENE,58,3.0,7.0,96,0.00,,,0.00,WUHU216DAVISVP2,2013-02-12 09:26:00,
2013-02-12 03:31:00,51.7,50.6,29.88,NE,35,3.0,7.0,96,0.00,,,0.00,WUHU216DAVISVP2,2013-02-12 09:31:00,
2013-02-12 03:36:00,51.7,50.6,29.88,NE,52,3.0,6.0,96,0.00,,,0.00,WUHU216DAVISVP2,2013-02-12 09:36:00,
2013-02-12 03:41:00,51.7,50.6,29.88,NE,43,0.0,6.0,96,0.00,,,0.00,WUHU216DAVISVP2,2013-02-12 09:41:00,
2013-02-12 03:47:00,51.7,50.6,29.88,NE,42,1.0,5.0,96,0.00,,,0.00,WUHU216DAVISVP2,2013-02-12 09:47:00,
2013-02-12 03:52:00,51.7,50.6,29.87,NNE,24,3.0,5.0,96,0.00,,,0.00,WUHU216DAVISVP2,2013-02-12 09:52:00,
2013-02-12 03:57:00,51.7,50.6,29.88,NE,37,2.0,5.0,96,0.00,,,0.00,WUHU216DAVISVP2,2013-02-12 09:57:00,
2013-02-12 04:02:00,51.7,50.6,29.87,NNE,15,3.0,5.0,96,0.00,,,0.00,WUHU216DAVISVP2,2013-02-12 10:02:00,
2013-02-12 04:07:00,51.7,50.6,29.85,NE,35,3.0,9.0,96,0.00,,,0.00,WUHU216DAVISVP2,2013-02-12 10:07:00,
2013-02-12 04:12:00,51.7,50.6,29.84,ENE,59,2.0,9.0,96,0.00,,,0.00,WUHU216DAVISVP2,2013-02-12 10:12:00,
2013-02-12 04:17:00,51.7,50.6,29.84,ENE,68,5.0,9.0,96,0.00,,,0.00,WUHU216DAVISVP2,2013-02-12 10:17:00,
2013-02-12 04:22:00,51.7,50.6,29.84,ENE,61,1.0,8.0,96,0.00,,,0.00,WUHU216DAVISVP2,2013-02-12 10:22:00,
2013-02-12 04:27:00,51.7,50.6,29.85,NNE,29,2.0,8.0,96,0.00,,,0.00,WUHU216DAVISVP2,2013-02-12 10:27:00,
2013-02-12 04:32:00,51.7,50.6,29.85,NNE,20,0.0,8.0,96,0.00,,,0.00,WUHU216DAVISVP2,2013-02-12 10:32:00,
2013-02-12 04:38:00,51.7,50.6,29.85,East,89,1.0,5.0,96,0.00,,,0.00,WUHU216DAVISVP2,2013-02-12 10:38:00,
2013-02-12 04:43:00,51.8,50.7,29.86,ENE,58,0.0,5.0,96,0.00,,,0.00,WUHU216DAVISVP2,2013-02-12 10:43:00,
2013-02-12 04:48:00,51.8,50.7,29.86,ENE,78,0.0,5.0,96,0.00,,,0.00,WUHU216DAVISVP2,2013-02-12 10:48:00,
2013-02-12 04:53:00,51.8,50.7,29.85,East,86,1.0,5.0,96,0.00,,,0.00,WUHU216DAVISVP2,2013-02-12 10:53:00,
2013-02-12 04:58:00,51.8,50.7,29.85,NE,39,1.0,3.0,96,0.00,,,0.00,WUHU216DAVISVP2,2013-02-12 10:58:00,
2013-02-12 05:03:00,51.8,50.7,29.85,NE,55,2.0,3.0,96,0.00,,,0.00,WUHU216DAVISVP2,2013-02-12 11:03:00,
2013-02-12 05:08:00,51.8,50.7,29.84,NE,45,2.0,3.0,96,0.00,,,0.00,WUHU216DAVISVP2,2013-02-12 11:08:00,
2013-02-12 05:13:00,51.8,50.7,29.84,NE,50,1.0,3.0,96,0.00,,,0.00,WUHU216DAVISVP2,2013-02-12 11:13:00,
2013-02-12 05:18:00,51.9,50.8,29.84,NE,39,1.0,3.0,96,0.00,,,0.00,WUHU216DAVISVP2,2013-02-12 11:18:00,
2013-02-12 05:23:00,51.9,50.8,29.84,NE,39,1.0,3.0,96,0.00,,,0.00,WUHU216DAVISVP2,2013-02-12 11:23:00,
2013-02-12 05:28:00,51.9,51.0,29.84,NNE,22,0.0,3.0,97,0.00,,,0.00,WUHU216DAVISVP2,2013-02-12 11:28:00,
2013-02-12 05:33:00,51.9,51.0,29.84,NNE,23,0.0,3.0,97,0.00,,,0.00,WUHU216DAVISVP2,2013-02-12 11:33:00,
2013-02-12 05:38:00,52.0,51.1,29.85,North,6,1.0,5.0,97,0.00,,,0.00,WUHU216DAVISVP2,2013-02-12 11:38:00,
2013-02-12 05:43:00,52.0,51.1,29.85,NNW,340,1.0,5.0,97,0.00,,,0.00,WUHU216DAVISVP2,2013-02-12 11:43:00,
2013-02-12 05:48:00,52.0,51.1,29.85,NNW,347,1.0,5.0,97,0.00,,,0.00,WUHU216DAVISVP2,2013-02-12 11:48:00,
2013-02-12 05:53:00,52.1,51.2,29.86,North,357,0.0,5.0,97,0.00,,,0.00,WUHU216DAVISVP2,2013-02-12 11:53:00,
2013-02-12 05:58:00,52.1,51.2,29.86,NNW,335,1.0,4.0,97,0.00,,,0.00,WUHU216DAVISVP2,2013-02-12 11:58:00,
2013-02-12 06:03:00,52.1,51.2,29.86,North,352,3.0,4.0,97,0.00,,,0.00,WUHU216DAVISVP2,2013-02-12 12:03:00,
2013-02-12 06:08:00,52.1,51.2,29.86,North,2,1.0,3.0,97,0.00,,,0.00,WUHU216DAVISVP2,2013-02-12 12:08:00,
2013-02-12 06:13:00,52.0,51.1,29.87,NW,311,1.0,3.0,97,0.00,,,0.00,WUHU216DAVISVP2,2013-02-12 12:13:00,
2013-02-12 06:18:00,52.1,51.2,29.87,NW,311,0.0,3.0,97,0.00,,,0.00,WUHU216DAVISVP2,2013-02-12 12:18:00,
2013-02-12 06:23:00,52.1,51.2,29.87,NW,311,0.0,2.0,97,0.00,,,0.00,WUHU216DAVISVP2,2013-02-12 12:23:00,
2013-02-12 06:28:00,52.1,51.2,29.88,WNW,298,0.0,2.0,97,0.00,,,0.00,WUHU216DAVISVP2,2013-02-12 12:28:00,
2013-02-12 06:33:00,52.2,51.3,29.88,WNW,287,3.0,3.0,97,0.00,,,0.00,WUHU216DAVISVP2,2013-02-12 12:33:00,
2013-02-12 06:38:00,52.2,51.3,29.88,WNW,291,2.0,4.0,97,0.00,,,0.00,WUHU216DAVISVP2,2013-02-12 12:38:00,
2013-02-12 06:43:00,52.1,51.2,29.88,WNW,291,1.0,4.0,97,0.00,,,0.00,WUHU216DAVISVP2,2013-02-12 12:43:00,
2013-02-12 06:48:00,52.1,51.2,29.88,WNW,286,1.0,4.0,97,0.00,,,0.00,WUHU216DAVISVP2,2013-02-12 12:48:00,
2013-02-12 06:53:00,52.1,51.2,29.88,WNW,300,1.0,3.0,97,0.00,,,0.00,WUHU216DAVISVP2,2013-02-12 12:53:00,
2013-02-12 06:58:00,52.1,51.2,29.87,WNW,300,0.0,3.0,97,0.00,,,0.00,WUHU216DAVISVP2,2013-02-12 12:58:00,
2013-02-12 07:03:00,52.1,51.2,29.87,WNW,300,0.0,3.0,97,0.00,,,0.00,WUHU216DAVISVP2,2013-02-12 13:03:00,
2013-02-12 07:08:00,52.1,51.2,29.88,WNW,300,0.0,3.0,97,0.00,,,0.00,WUHU216DAVISVP2,2013-02-12 13:08:00,
2013-02-12 07:13:00,52.0,51.1,29.87,WNW,300,0.0,1.0,97,0.00,,,0.00,WUHU216DAVISVP2,2013-02-12 13:13:00,
2013-02-12 07:18:00,52.1,51.2,29.88,WNW,300,0.0,0.0,97,0.00,,,0.00,WUHU216DAVISVP2,2013-02-12 13:18:00,
2013-02-12 07:23:00,52.1,51.2,29.88,WNW,300,0.0,0.0,97,0.00,,,0.00,WUHU216DAVISVP2,2013-02-12 13:23:00,
2013-02-12 07:28:00,52.1,51.2,29.88,WNW,300,0.0,0.0,97,0.00,,,0.00,WUHU216DAVISVP2,2013-02-12 13:28:00,
2013-02-12 07:33:00,52.2,51.3,29.88,WNW,289,1.0,2.0,97,0.00,,,0.00,WUHU216DAVISVP2,2013-02-12 13:33:00,
2013-02-12 07:38:00,52.2,51.3,29.88,WNW,293,2.0,3.0,97,0.00,,,0.00,WUHU216DAVISVP2,2013-02-12 13:38:00,
2013-02-12 07:43:00,52.3,51.4,29.88,WNW,293,0.0,3.0,97,0.00,,,0.00,WUHU216DAVISVP2,2013-02-12 13:43:00,
2013-02-12 07:48:00,52.3,51.4,29.88,WNW,284,0.0,3.0,97,0.00,,,0.00,WUHU216DAVISVP2,2013-02-12 13:48:00,
2013-02-12 07:53:00,52.4,51.5,29.88,WNW,285,1.0,3.0,97,0.00,,,0.00,WUHU216DAVISVP2,2013-02-12 13:53:00,
2013-02-12 07:58:00,52.4,51.5,29.89,WNW,290,2.0,3.0,97,0.00,,,0.00,WUHU216DAVISVP2,2013-02-12 13:58:00,
2013-02-12 08:03:00,52.5,51.6,29.88,NW,308,1.0,3.0,97,0.00,,,0.00,WUHU216DAVISVP2,2013-02-12 14:03:00,
2013-02-12 08:08:00,52.6,51.7,29.88,NNW,329,0.0,3.0,97,0.00,,,0.00,WUHU216DAVISVP2,2013-02-12 14:08:00,
2013-02-12 08:13:00,52.7,51.8,29.88,NW,320,1.0,3.0,97,0.00,,,0.00,WUHU216DAVISVP2,2013-02-12 14:13:00,
2013-02-12 08:18:00,52.8,51.9,29.88,NW,321,0.0,3.0,97,0.00,,,0.00,WUHU216DAVISVP2,2013-02-12 14:18:00,
2013-02-12 08:23:00,52.8,51.7,29.88,NW,308,0.0,3.0,96,0.00,,,0.00,WUHU216DAVISVP2,2013-02-12 14:23:00,
2013-02-12 08:28:00,52.8,51.7,29.88,WNW,300,0.0,3.0,96,0.00,,,0.00,WUHU216DAVISVP2,2013-02-12 14:28:00,
2013-02-12 08:33:00,53.0,51.9,29.88,WNW,300,0.0,3.0,96,0.00,,,0.00,WUHU216DAVISVP2,2013-02-12 14:33:00,
2013-02-12 08:38:00,53.1,52.0,29.88,NNW,337,0.0,3.0,96,0.00,,,0.00,WUHU216DAVISVP2,2013-02-12 14:38:00,
2013-02-12 08:43:00,53.3,52.2,29.88,NW,318,1.0,2.0,96,0.00,,,0.00,WUHU216DAVISVP2,2013-02-12 14:43:00,
2013-02-12 08:48:00,53.5,52.4,29.89,WNW,291,1.0,3.0,96,0.00,,,0.00,WUHU216DAVISVP2,2013-02-12 14:48:00,
2013-02-12 08:53:00,53.6,52.5,29.89,West,262,1.0,3.0,96,0.00,,,0.00,WUHU216DAVISVP2,2013-02-12 14:53:00,
2013-02-12 08:58:00,53.7,52.3,29.90,WNW,282,2.0,3.0,95,0.00,,,0.00,WUHU216DAVISVP2,2013-02-12 14:58:00,
2013-02-12 09:03:00,53.8,52.4,29.90,SW,217,1.0,3.0,95,0.00,,,0.00,WUHU216DAVISVP2,2013-02-12 15:03:00,
2013-02-12 09:08:00,53.9,52.5,29.90,West,278,1.0,3.0,95,0.00,,,0.00,WUHU216DAVISVP2,2013-02-12 15:08:00,
2013-02-12 09:13:00,54.0,52.6,29.91,West,274,1.0,3.0,95,0.00,,,0.00,WUHU216DAVISVP2,2013-02-12 15:13:00,
2013-02-12 09:18:00,54.1,52.7,29.91,West,260,2.0,4.0,95,0.00,,,0.00,WUHU216DAVISVP2,2013-02-12 15:18:00,
2013-02-12 09:23:00,54.1,52.4,29.91,West,278,2.0,6.0,94,0.00,,,0.00,WUHU216DAVISVP2,2013-02-12 15:23:00,
2013-02-12 09:28:00,54.1,52.7,29.91,West,270,2.0,6.0,95,0.00,,,0.00,WUHU216DAVISVP2,2013-02-12 15:28:00,
2013-02-12 09:33:00,54.2,52.8,29.91,WNW,294,1.0,6.0,95,0.00,,,0.00,WUHU216DAVISVP2,2013-02-12 15:33:00,
2013-02-12 09:38:00,54.4,53.0,29.90,WNW,285,2.0,6.0,95,0.00,,,0.00,WUHU216DAVISVP2,2013-02-12 15:38:00,
2013-02-12 09:43:00,54.6,53.2,29.91,WNW,300,2.0,4.0,95,0.00,,,0.00,WUHU216DAVISVP2,2013-02-12 15:43:00,
2013-02-12 09:48:00,54.6,52.9,29.93,West,273,5.0,9.0,94,0.00,,,0.00,WUHU216DAVISVP2,2013-02-12 15:48:00,
2013-02-12 09:53:00,54.5,52.8,29.93,West,264,5.0,9.0,94,0.00,,,0.00,WUHU216DAVISVP2,2013-02-12 15:53:00,
2013-02-12 09:58:00,54.5,53.1,29.93,WNW,282,2.0,9.0,95,0.00,,,0.00,WUHU216DAVISVP2,2013-02-12 15:58:00,
2013-02-12 10:03:00,54.7,53.3,29.94,West,278,3.0,9.0,95,0.00,,,0.00,WUHU216DAVISVP2,2013-02-12 16:03:00,
2013-02-12 10:08:00,54.9,53.2,29.93,West,271,4.0,7.0,94,0.00,,,0.00,WUHU216DAVISVP2,2013-02-12 16:08:00,
2013-02-12 10:13:00,55.3,53.9,29.93,WNW,295,4.0,7.0,95,0.00,,,0.00,WUHU216DAVISVP2,2013-02-12 16:13:00,
2013-02-12 10:18:00,55.6,53.9,29.93,North,352,4.0,6.0,94,0.00,,,0.00,WUHU216DAVISVP2,2013-02-12 16:18:00,
2013-02-12 10:23:00,55.9,54.2,29.93,NW,305,3.0,6.0,94,0.00,,,0.00,WUHU216DAVISVP2,2013-02-12 16:23:00,
2013-02-12 10:28:00,56.2,54.2,29.93,West,261,3.0,6.0,93,0.00,,,0.00,WUHU216DAVISVP2,2013-02-12 16:28:00,
2013-02-12 10:33:00,56.8,55.1,29.93,West,271,2.0,6.0,94,0.00,,,0.00,WUHU216DAVISVP2,2013-02-12 16:33:00,
2013-02-12 10:38:00,58.0,56.2,29.93,West,271,4.0,6.0,94,0.00,,,0.00,WUHU216DAVISVP2,2013-02-12 16:38:00,
2013-02-12 10:43:00,58.9,56.2,29.92,WNW,301,0.0,6.0,91,0.00,,,0.00,WUHU216DAVISVP2,2013-02-12 16:43:00,
2013-02-12 10:48:00,59.2,55.6,29.92,West,274,3.0,6.0,88,0.00,,,0.00,WUHU216DAVISVP2,2013-02-12 16:48:00,
2013-02-12 10:53:00,59.0,55.4,29.92,West,266,4.0,6.0,88,0.00,,,0.00,WUHU216DAVISVP2,2013-02-12 16:53:00,
2013-02-12 10:58:00,59.4,55.8,29.92,West,279,2.0,7.0,88,0.00,,,0.00,WUHU216DAVISVP2,2013-02-12 16:58:00,
2013-02-12 11:03:00,60.1,56.8,29.92,West,274,4.0,7.0,89,0.00,,,0.00,WUHU216DAVISVP2,2013-02-12 17:03:00,
2013-02-12 11:09:00,60.9,57.3,29.92,SW,229,3.0,7.0,88,0.00,,,0.00,WUHU216DAVISVP2,2013-02-12 17:09:00,
2013-02-12 11:14:00,62.0,57.1,29.91,West,264,2.0,7.0,84,0.00,,,0.00,WUHU216DAVISVP2,2013-02-12 17:14:00,
2013-02-12 11:19:00,63.0,58.1,29.91,SW,226,2.0,7.0,84,0.00,,,0.00,WUHU216DAVISVP2,2013-02-12 17:19:00,
2013-02-12 11:24:00,64.2,58.6,29.91,WSW,255,3.0,7.0,82,0.00,,,0.00,WUHU216DAVISVP2,2013-02-12 17:24:00,
2013-02-12 11:29:00,65.1,57.8,29.91,West,264,3.0,7.0,77,0.00,,,0.00,WUHU216DAVISVP2,2013-02-12 17:29:00,
2013-02-12 11:34:00,65.8,58.1,29.90,SSW,196,2.0,7.0,76,0.00,,,0.00,WUHU216DAVISVP2,2013-02-12 17:34:00,
2013-02-12 11:39:00,66.3,58.6,29.90,SW,218,6.0,8.0,76,0.00,,,0.00,WUHU216DAVISVP2,2013-02-12 17:39:00,
2013-02-12 11:44:00,66.6,57.4,29.90,SSW,208,1.0,8.0,72,0.00,,,0.00,WUHU216DAVISVP2,2013-02-12 17:44:00,
2013-02-12 11:49:00,66.9,57.3,29.90,NW,305,4.0,8.0,71,0.00,,,0.00,WUHU216DAVISVP2,2013-02-12 17:49:00,
2013-02-12 11:54:00,66.8,56.9,29.89,NW,304,5.0,8.0,70,0.00,,,0.00,WUHU216DAVISVP2,2013-02-12 17:54:00,
2013-02-12 11:59:00,66.6,56.7,29.89,West,275,5.0,7.0,70,0.00,,,0.00,WUHU216DAVISVP2,2013-02-12 17:59:00,
2013-02-12 12:04:00,66.7,56.2,29.89,SSW,207,2.0,7.0,69,0.00,,,0.00,WUHU216DAVISVP2,2013-02-12 18:04:00,
2013-02-12 12:09:00,67.3,56.4,29.89,NNW,330,1.0,8.0,68,0.00,,,0.00,WUHU216DAVISVP2,2013-02-12 18:09:00,
2013-02-12 12:14:00,67.4,56.2,29.88,SSW,202,4.0,8.0,67,0.00,,,0.00,WUHU216DAVISVP2,2013-02-12 18:14:00,
2013-02-12 12:19:00,67.6,55.2,29.89,SSE,153,0.0,8.0,64,0.00,,,0.00,WUHU216DAVISVP2,2013-02-12 18:19:00,
2013-02-12 12:24:00,67.6,55.2,29.88,WNW,283,1.0,8.0,64,0.00,,,0.00,WUHU216DAVISVP2,2013-02-12 18:24:00,
2013-02-12 12:29:00,67.9,55.0,29.87,SE,128,2.0,8.0,63,0.00,,,0.00,WUHU216DAVISVP2,2013-02-12 18:29:00,
2013-02-12 12:34:00,68.4,54.6,29.87,WSW,253,3.0,8.0,61,0.00,,,0.00,WUHU216DAVISVP2,2013-02-12 18:34:00,
2013-02-12 12:39:00,67.8,54.0,29.87,WNW,292,6.0,7.0,61,0.00,,,0.00,WUHU216DAVISVP2,2013-02-12 18:39:00,
2013-02-12 12:44:00,67.5,54.2,29.87,West,270,4.0,7.0,62,0.00,,,0.00,WUHU216DAVISVP2,2013-02-12 18:44:00,
2013-02-12 12:49:00,67.9,53.7,29.86,West,272,4.0,7.0,60,0.00,,,0.00,WUHU216DAVISVP2,2013-02-12 18:49:00,
2013-02-12 12:54:00,68.5,53.3,29.86,WNW,297,4.0,7.0,58,0.00,,,0.00,WUHU216DAVISVP2,2013-02-12 18:54:00,
2013-02-12 12:59:00,69.8,53.5,29.86,West,281,6.0,16.0,56,0.00,,,0.00,WUHU216DAVISVP2,2013-02-12 18:59:00,
2013-02-12 13:04:00,70.2,52.8,29.86,WNW,299,4.0,19.0,54,0.00,,,0.00,WUHU216DAVISVP2,2013-02-12 19:04:00,
2013-02-12 13:09:00,70.5,52.0,29.86,North,2,5.0,19.0,52,0.00,,,0.00,WUHU216DAVISVP2,2013-02-12 19:09:00,
2013-02-12 13:14:00,70.4,51.5,29.86,NW,309,4.0,19.0,51,0.00,,,0.00,WUHU216DAVISVP2,2013-02-12 19:14:00,
2013-02-12 13:19:00,70.6,52.2,29.85,NW,308,4.0,11.0,52,0.00,,,0.00,WUHU216DAVISVP2,2013-02-12 19:19:00,
2013-02-12 13:24:00,70.4,52.0,29.85,NNE,14,4.0,11.0,52,0.00,,,0.00,WUHU216DAVISVP2,2013-02-12 19:24:00,
2013-02-12 13:29:00,70.5,52.7,29.85,WNW,289,6.0,11.0,53,0.00,,,0.00,WUHU216DAVISVP2,2013-02-12 19:29:00,
2013-02-12 13:34:00,70.5,52.1,29.84,NNW,333,3.0,13.0,52,0.00,,,0.00,WUHU216DAVISVP2,2013-02-12 19:34:00,
2013-02-12 13:39:00,70.4,52.6,29.84,NW,326,3.0,13.0,53,0.00,,,0.00,WUHU216DAVISVP2,2013-02-12 19:39:00,
2013-02-12 13:44:00,70.4,52.6,29.84,NW,309,5.0,13.0,53,0.00,,,0.00,WUHU216DAVISVP2,2013-02-12 19:44:00,
2013-02-12 13:49:00,70.2,52.4,29.83,WNW,294,3.0,12.0,53,0.00,,,0.00,WUHU216DAVISVP2,2013-02-12 19:49:00,
2013-02-12 13:54:00,70.3,53.0,29.83,WNW,290,2.0,12.0,54,0.00,,,0.00,WUHU216DAVISVP2,2013-02-12 19:54:00,
2013-02-12 13:59:00,70.1,51.7,29.83,West,262,3.0,11.0,52,0.00,,,0.00,WUHU216DAVISVP2,2013-02-12 19:59:00,
2013-02-12 14:04:00,70.0,53.1,29.82,WNW,287,3.0,8.0,55,0.00,,,0.00,WUHU216DAVISVP2,2013-02-12 20:04:00,
2013-02-12 14:09:00,70.7,53.2,29.82,WNW,287,4.0,8.0,54,0.00,,,0.00,WUHU216DAVISVP2,2013-02-12 20:09:00,
2013-02-12 14:14:00,72.1,51.9,29.82,NNW,345,5.0,8.0,49,0.00,,,0.00,WUHU216DAVISVP2,2013-02-12 20:14:00,
2013-02-12 14:19:00,72.2,53.2,29.82,WNW,299,4.0,9.0,51,0.00,,,0.00,WUHU216DAVISVP2,2013-02-12 20:19:00,
2013-02-12 14:24:00,72.0,52.4,29.82,West,279,5.0,11.0,50,0.00,,,0.00,WUHU216DAVISVP2,2013-02-12 20:24:00,
2013-02-12 14:29:00,72.1,52.5,29.82,NNW,335,0.0,11.0,50,0.00,,,0.00,WUHU216DAVISVP2,2013-02-12 20:29:00,
2013-02-12 14:34:00,72.8,52.6,29.82,NNW,345,1.0,11.0,49,0.00,,,0.00,WUHU216DAVISVP2,2013-02-12 20:34:00,
2013-02-12 14:39:00,72.9,53.2,29.82,West,272,5.0,11.0,50,0.00,,,0.00,WUHU216DAVISVP2,2013-02-12 20:39:00,
2013-02-12 14:44:00,72.5,52.3,29.82,NW,312,5.0,9.0,49,0.00,,,0.00,WUHU216DAVISVP2,2013-02-12 20:44:00,
2013-02-12 14:49:00,72.3,52.1,29.82,West,267,3.0,9.0,49,0.00,,,0.00,WUHU216DAVISVP2,2013-02-12 20:49:00,
2013-02-12 14:54:00,72.5,51.1,29.81,WNW,301,0.0,9.0,47,0.00,,,0.00,WUHU216DAVISVP2,2013-02-12 20:54:00,
2013-02-12 14:59:00,72.6,51.2,29.82,NW,310,3.0,9.0,47,0.00,,,0.00,WUHU216DAVISVP2,2013-02-12 20:59:00,
2013-02-12 15:04:00,73.1,51.7,29.81,NNW,336,3.0,8.0,47,0.00,,,0.00,WUHU216DAVISVP2,2013-02-12 21:04:00,
2013-02-12 15:09:00,73.0,51.6,29.81,WNW,302,3.0,7.0,47,0.00,,,0.00,WUHU216DAVISVP2,2013-02-12 21:09:00,
2013-02-12 15:14:00,72.9,49.7,29.80,West,268,4.0,7.0,44,0.00,,,0.00,WUHU216DAVISVP2,2013-02-12 21:14:00,
2013-02-12 15:19:00,72.9,49.0,29.80,West,281,2.0,7.0,43,0.00,,,0.00,WUHU216DAVISVP2,2013-02-12 21:19:00,
2013-02-12 15:24:00,73.1,48.6,29.81,West,272,2.0,6.0,42,0.00,,,0.00,WUHU216DAVISVP2,2013-02-12 21:24:00,
2013-02-12 15:29:00,73.5,45.5,29.81,WNW,285,8.0,8.0,37,0.00,,,0.00,WUHU216DAVISVP2,2013-02-12 21:29:00,
2013-02-12 15:34:00,73.9,43.6,29.81,NW,320,10.0,10.0,34,0.00,,,0.00,WUHU216DAVISVP2,2013-02-12 21:34:00,
2013-02-12 15:39:00,74.5,43.3,29.81,WSW,258,5.0,13.0,33,0.00,,,0.00,WUHU216DAVISVP2,2013-02-12 21:39:00,
2013-02-12 15:44:00,74.0,40.4,29.81,West,263,3.0,13.0,30,0.00,,,0.00,WUHU216DAVISVP2,2013-02-12 21:44:00,
2013-02-12 15:49:00,74.3,42.4,29.81,WNW,295,6.0,13.0,32,0.00,,,0.00,WUHU216DAVISVP2,2013-02-12 21:49:00,
2013-02-12 15:54:00,74.0,42.1,29.81,WNW,299,2.0,13.0,32,0.00,,,0.00,WUHU216DAVISVP2,2013-02-12 21:54:00,
2013-02-12 15:59:00,73.8,42.7,29.80,West,279,7.0,10.0,33,0.00,,,0.00,WUHU216DAVISVP2,2013-02-12 21:59:00,
2013-02-12 16:04:00,74.0,40.4,29.80,NW,322,2.0,10.0,30,0.00,,,0.00,WUHU216DAVISVP2,2013-02-12 22:04:00,
2013-02-12 16:09:00,74.0,41.3,29.80,WNW,285,5.0,10.0,31,0.00,,,0.00,WUHU216DAVISVP2,2013-02-12 22:09:00,
2013-02-12 16:14:00,74.3,40.7,29.81,West,265,4.0,11.0,30,0.00,,,0.00,WUHU216DAVISVP2,2013-02-12 22:14:00,
2013-02-12 16:19:00,74.9,41.4,29.81,West,272,6.0,11.0,30,0.00,,,0.00,WUHU216DAVISVP2,2013-02-12 22:19:00,
2013-02-12 16:24:00,75.5,41.0,29.81,NW,319,3.0,11.0,29,0.00,,,0.00,WUHU216DAVISVP2,2013-02-12 22:24:00,
2013-02-12 16:29:00,75.0,40.6,29.81,WNW,303,6.0,11.0,29,0.00,,,0.00,WUHU216DAVISVP2,2013-02-12 22:29:00,
2013-02-12 16:34:00,74.1,38.9,29.81,West,270,4.0,11.0,28,0.00,,,0.00,WUHU216DAVISVP2,2013-02-12 22:34:00,
2013-02-12 16:39:00,73.6,38.3,29.81,NNW,327,3.0,11.0,28,0.00,,,0.00,WUHU216DAVISVP2,2013-02-12 22:39:00,
2013-02-12 16:44:00,73.6,39.2,29.82,WNW,302,4.0,11.0,29,0.00,,,0.00,WUHU216DAVISVP2,2013-02-12 22:44:00,
2013-02-12 16:49:00,73.8,38.5,29.82,NW,309,6.0,9.0,28,0.00,,,0.00,WUHU216DAVISVP2,2013-02-12 22:49:00,
2013-02-12 16:54:00,73.3,35.2,29.81,WNW,283,6.0,11.0,25,0.00,,,0.00,WUHU216DAVISVP2,2013-02-12 22:54:00,
2013-02-12 16:59:00,73.2,35.1,29.82,WNW,285,5.0,11.0,25,0.00,,,0.00,WUHU216DAVISVP2,2013-02-12 22:59:00,
2013-02-12 17:04:00,73.2,36.1,29.82,West,271,5.0,11.0,26,0.00,,,0.00,WUHU216DAVISVP2,2013-02-12 23:04:00,
2013-02-12 17:09:00,73.7,36.5,29.82,West,262,6.0,11.0,26,0.00,,,0.00,WUHU216DAVISVP2,2013-02-12 23:09:00,
2013-02-12 17:14:00,73.3,35.2,29.82,West,268,3.0,10.0,25,0.00,,,0.00,WUHU216DAVISVP2,2013-02-12 23:14:00,
2013-02-12 17:19:00,73.0,35.9,29.82,WNW,288,2.0,7.0,26,0.00,,,0.00,WUHU216DAVISVP2,2013-02-12 23:19:00,
2013-02-12 17:24:00,72.6,35.6,29.83,WNW,303,1.0,7.0,26,0.00,,,0.00,WUHU216DAVISVP2,2013-02-12 23:24:00,
2013-02-12 17:29:00,72.4,35.4,29.83,West,277,3.0,7.0,26,0.00,,,0.00,WUHU216DAVISVP2,2013-02-12 23:29:00,
2013-02-12 17:34:00,72.4,35.4,29.83,WNW,301,4.0,6.0,26,0.00,,,0.00,WUHU216DAVISVP2,2013-02-12 23:34:00,
2013-02-12 17:39:00,72.7,36.6,29.83,NW,308,4.0,7.0,27,0.00,,,0.00,WUHU216DAVISVP2,2013-02-12 23:39:00,
2013-02-12 17:44:00,72.2,34.3,29.83,WNW,297,4.0,9.0,25,0.00,,,0.00,WUHU216DAVISVP2,2013-02-12 23:44:00,
2013-02-12 17:49:00,71.7,32.9,29.84,WNW,294,7.0,9.0,24,0.00,,,0.00,WUHU216DAVISVP2,2013-02-12 23:49:00,
2013-02-12 17:54:00,71.2,33.4,29.83,WNW,303,2.0,9.0,25,0.00,,,0.00,WUHU216DAVISVP2,2013-02-12 23:54:00,
2013-02-12 17:59:00,70.8,32.1,29.83,West,271,2.0,9.0,24,0.00,,,0.00,WUHU216DAVISVP2,2013-02-12 23:59:00,
2013-02-12 18:04:00,70.9,32.2,29.84,West,269,3.0,8.0,24,0.00,,,0.00,WUHU216DAVISVP2,2013-02-13 00:04:00,
2013-02-12 18:09:00,70.6,31.9,29.84,West,281,2.0,8.0,24,0.00,,,0.00,WUHU216DAVISVP2,2013-02-13 00:09:00,
2013-02-12 18:14:00,70.3,32.7,29.84,West,280,2.0,8.0,25,0.00,,,0.00,WUHU216DAVISVP2,2013-02-13 00:14:00,
2013-02-12 18:19:00,69.7,33.1,29.85,WNW,291,1.0,5.0,26,0.00,,,0.00,WUHU216DAVISVP2,2013-02-13 00:19:00,
2013-02-12 18:24:00,68.8,33.3,29.85,WNW,295,2.0,4.0,27,0.00,,,0.00,WUHU216DAVISVP2,2013-02-13 00:24:00,
2013-02-12 18:29:00,68.1,33.6,29.85,WNW,303,0.0,3.0,28,0.00,,,0.00,WUHU216DAVISVP2,2013-02-13 00:29:00,
2013-02-12 18:34:00,67.6,33.2,29.85,WNW,303,1.0,4.0,28,0.00,,,0.00,WUHU216DAVISVP2,2013-02-13 00:34:00,
2013-02-12 18:39:00,67.6,32.3,29.85,NW,326,4.0,8.0,27,0.00,,,0.00,WUHU216DAVISVP2,2013-02-13 00:39:00,
2013-02-12 18:44:00,67.8,32.4,29.85,NW,313,4.0,8.0,27,0.00,,,0.00,WUHU216DAVISVP2,2013-02-13 00:44:00,
2013-02-12 18:49:00,67.7,32.3,29.85,WNW,293,3.0,8.0,27,0.00,,,0.00,WUHU216DAVISVP2,2013-02-13 00:49:00,
2013-02-12 18:54:00,67.9,31.6,29.84,WNW,285,6.0,9.0,26,0.00,,,0.00,WUHU216DAVISVP2,2013-02-13 00:54:00,
2013-02-12 18:59:00,68.0,31.7,29.85,WNW,288,1.0,9.0,26,0.00,,,0.00,WUHU216DAVISVP2,2013-02-13 00:59:00,
2013-02-12 19:04:00,67.8,31.5,29.86,WNW,287,4.0,9.0,26,0.00,,,0.00,WUHU216DAVISVP2,2013-02-13 01:04:00,
2013-02-12 19:09:00,67.6,31.3,29.86,WNW,295,2.0,9.0,26,0.00,,,0.00,WUHU216DAVISVP2,2013-02-13 01:09:00,
2013-02-12 19:14:00,67.5,30.3,29.87,West,266,3.0,9.0,25,0.00,,,0.00,WUHU216DAVISVP2,2013-02-13 01:14:00,
2013-02-12 19:19:00,67.6,30.4,29.87,NNW,334,4.0,9.0,25,0.00,,,0.00,WUHU216DAVISVP2,2013-02-13 01:19:00,
2013-02-12 19:24:00,67.6,30.4,29.88,WNW,295,11.0,11.0,25,0.00,,,0.00,WUHU216DAVISVP2,2013-02-13 01:24:00,
2013-02-12 19:29:00,67.7,29.5,29.89,NW,316,6.0,11.0,24,0.00,,,0.00,WUHU216DAVISVP2,2013-02-13 01:29:00,
2013-02-12 19:34:00,67.6,29.4,29.89,WNW,291,10.0,11.0,24,0.00,,,0.00,WUHU216DAVISVP2,2013-02-13 01:34:00,
2013-02-12 19:39:00,67.8,26.4,29.89,WNW,303,4.0,13.0,21,0.00,,,0.00,WUHU216DAVISVP2,2013-02-13 01:39:00,
2013-02-12 19:44:00,67.6,27.3,29.89,WNW,290,8.0,13.0,22,0.00,,,0.00,WUHU216DAVISVP2,2013-02-13 01:44:00,
2013-02-12 19:49:00,67.2,27.0,29.90,NW,310,4.0,13.0,22,0.00,,,0.00,WUHU216DAVISVP2,2013-02-13 01:49:00,
2013-02-12 19:54:00,66.8,27.7,29.90,WNW,303,4.0,13.0,23,0.00,,,0.00,WUHU216DAVISVP2,2013-02-13 01:54:00,
2013-02-12 19:59:00,66.6,26.5,29.91,NNW,336,6.0,10.0,22,0.00,,,0.00,WUHU216DAVISVP2,2013-02-13 01:59:00,
2013-02-12 20:04:00,66.5,26.4,29.90,NW,322,7.0,10.0,22,0.00,,,0.00,WUHU216DAVISVP2,2013-02-13 02:04:00,
2013-02-12 20:09:00,66.3,26.2,29.91,NW,313,3.0,10.0,22,0.00,,,0.00,WUHU216DAVISVP2,2013-02-13 02:09:00,
2013-02-12 20:14:00,66.1,26.0,29.91,NW,314,5.0,10.0,22,0.00,,,0.00,WUHU216DAVISVP2,2013-02-13 02:14:00,
2013-02-12 20:19:00,66.0,26.0,29.91,NW,306,5.0,10.0,22,0.00,,,0.00,WUHU216DAVISVP2,2013-02-13 02:19:00,
2013-02-12 20:24:00,65.9,24.8,29.91,NW,304,5.0,10.0,21,0.00,,,0.00,WUHU216DAVISVP2,2013-02-13 02:24:00,
2013-02-12 20:29:00,65.8,24.7,29.92,WNW,283,8.0,10.0,21,0.00,,,0.00,WUHU216DAVISVP2,2013-02-13 02:29:00,
2013-02-12 20:34:00,65.7,24.6,29.92,WNW,293,3.0,10.0,21,0.00,,,0.00,WUHU216DAVISVP2,2013-02-13 02:34:00,
2013-02-12 20:39:00,65.5,24.4,29.93,WNW,299,3.0,10.0,21,0.00,,,0.00,WUHU216DAVISVP2,2013-02-13 02:39:00,
2013-02-12 20:44:00,65.3,24.3,29.93,NW,313,4.0,10.0,21,0.00,,,0.00,WUHU216DAVISVP2,2013-02-13 02:44:00,
2013-02-12 20:49:00,65.1,24.1,29.93,WNW,290,5.0,9.0,21,0.00,,,0.00,WUHU216DAVISVP2,2013-02-13 02:49:00,
2013-02-12 20:54:00,65.1,23.0,29.93,WNW,291,6.0,10.0,20,0.00,,,0.00,WUHU216DAVISVP2,2013-02-13 02:54:00,
2013-02-12 20:59:00,65.2,24.2,29.94,North,9,2.0,10.0,21,0.00,,,0.00,WUHU216DAVISVP2,2013-02-13 02:59:00,
2013-02-12 21:04:00,65.2,24.2,29.94,NNW,347,2.0,10.0,21,0.00,,,0.00,WUHU216DAVISVP2,2013-02-13 03:04:00,
2013-02-12 21:09:00,65.0,24.1,29.93,NNW,327,5.0,10.0,21,0.00,,,0.00,WUHU216DAVISVP2,2013-02-13 03:09:00,
2013-02-12 21:14:00,64.8,23.9,29.94,NW,318,5.0,10.0,21,0.00,,,0.00,WUHU216DAVISVP2,2013-02-13 03:14:00,
2013-02-12 21:19:00,64.6,24.8,29.93,WNW,299,10.0,12.0,22,0.00,,,0.00,WUHU216DAVISVP2,2013-02-13 03:19:00,
2013-02-12 21:24:00,64.6,24.8,29.93,NW,326,6.0,13.0,22,0.00,,,0.00,WUHU216DAVISVP2,2013-02-13 03:24:00,
2013-02-12 21:29:00,64.3,25.6,29.93,NW,308,7.0,13.0,23,0.00,,,0.00,WUHU216DAVISVP2,2013-02-13 03:29:00,
2013-02-12 21:34:00,64.2,25.5,29.94,NW,314,7.0,13.0,23,0.00,,,0.00,WUHU216DAVISVP2,2013-02-13 03:34:00,
2013-02-12 21:39:00,64.1,26.4,29.95,WNW,289,2.0,10.0,24,0.00,,,0.00,WUHU216DAVISVP2,2013-02-13 03:39:00,
2013-02-12 21:44:00,63.8,26.2,29.95,NW,315,1.0,10.0,24,0.00,,,0.00,WUHU216DAVISVP2,2013-02-13 03:44:00,
2013-02-12 21:49:00,63.4,25.8,29.94,WNW,295,3.0,8.0,24,0.00,,,0.00,WUHU216DAVISVP2,2013-02-13 03:49:00,
2013-02-12 21:54:00,63.1,26.6,29.95,NW,312,1.0,8.0,25,0.00,,,0.00,WUHU216DAVISVP2,2013-02-13 03:54:00,
2013-02-12 21:59:00,62.9,27.3,29.96,NW,312,2.0,6.0,26,0.00,,,0.00,WUHU216DAVISVP2,2013-02-13 03:59:00,
2013-02-12 22:04:00,63.0,26.5,29.97,NNW,334,3.0,11.0,25,0.00,,,0.00,WUHU216DAVISVP2,2013-02-13 04:04:00,
2013-02-12 22:09:00,63.3,26.7,29.98,NW,305,7.0,11.0,25,0.00,,,0.00,WUHU216DAVISVP2,2013-02-13 04:09:00,
2013-02-12 22:14:00,63.4,26.8,29.98,North,8,3.0,11.0,25,0.00,,,0.00,WUHU216DAVISVP2,2013-02-13 04:14:00,
2013-02-12 22:19:00,63.2,27.6,29.99,NNW,339,3.0,11.0,26,0.00,,,0.00,WUHU216DAVISVP2,2013-02-13 04:19:00,
2013-02-12 22:24:00,63.1,27.5,29.99,NW,311,3.0,10.0,26,0.00,,,0.00,WUHU216DAVISVP2,2013-02-13 04:24:00,
2013-02-12 22:29:00,62.7,28.0,29.99,NW,313,6.0,8.0,27,0.00,,,0.00,WUHU216DAVISVP2,2013-02-13 04:29:00,
2013-02-12 22:34:00,62.5,28.8,30.00,North,10,2.0,8.0,28,0.00,,,0.00,WUHU216DAVISVP2,2013-02-13 04:34:00,
2013-02-12 22:40:00,62.2,29.3,30.00,NNE,15,4.0,8.0,29,0.00,,,0.00,WUHU216DAVISVP2,2013-02-13 04:40:00,
2013-02-12 22:45:00,61.9,32.3,30.01,North,8,3.0,11.0,33,0.00,,,0.00,WUHU216DAVISVP2,2013-02-13 04:45:00,
2013-02-12 22:50:00,61.5,33.4,30.01,NE,46,3.0,11.0,35,0.00,,,0.00,WUHU216DAVISVP2,2013-02-13 04:50:00,
2013-02-12 22:55:00,61.1,34.4,30.01,NW,306,6.0,11.0,37,0.00,,,0.00,WUHU216DAVISVP2,2013-02-13 04:55:00,
2013-02-12 23:00:00,60.8,34.8,30.02,NNW,327,3.0,11.0,38,0.00,,,0.00,WUHU216DAVISVP2,2013-02-13 05:00:00,
2013-02-12 23:05:00,60.5,35.2,30.02,NNW,339,5.0,11.0,39,0.00,,,0.00,WUHU216DAVISVP2,2013-02-13 05:05:00,
2013-02-12 23:10:00,60.1,36.8,30.02,NW,324,9.0,15.0,42,0.00,,,0.00,WUHU216DAVISVP2,2013-02-13 05:10:00,
2013-02-12 23:15:00,59.7,37.0,30.02,North,357,10.0,15.0,43,0.00,,,0.00,WUHU216DAVISVP2,2013-02-13 05:15:00,
2013-02-12 23:20:00,59.3,38.5,30.01,North,352,6.0,15.0,46,0.00,,,0.00,WUHU216DAVISVP2,2013-02-13 05:20:00,
2013-02-12 23:25:00,58.8,39.1,30.01,NNW,337,7.0,15.0,48,0.00,,,0.00,WUHU216DAVISVP2,2013-02-13 05:25:00,
2013-02-12 23:30:00,58.3,39.7,30.01,North,352,9.0,15.0,50,0.00,,,0.00,WUHU216DAVISVP2,2013-02-13 05:30:00,
2013-02-12 23:35:00,57.9,39.9,30.00,WNW,298,6.0,15.0,51,0.00,,,0.00,WUHU216DAVISVP2,2013-02-13 05:35:00,
2013-02-12 23:40:00,57.6,40.1,30.00,NNW,333,6.0,15.0,52,0.00,,,0.00,WUHU216DAVISVP2,2013-02-13 05:40:00,
2013-02-12 23:45:00,57.4,40.4,30.02,NW,316,5.0,11.0,53,0.00,,,0.00,WUHU216DAVISVP2,2013-02-13 05:45:00,
2013-02-12 23:50:00,57.3,40.3,30.02,NNW,343,3.0,10.0,53,0.00,,,0.00,WUHU216DAVISVP2,2013-02-13 05:50:00,
2013-02-12 23:55:00,57.2,39.7,30.03,NNW,337,6.0,10.0,52,0.00,,,0.00,WUHU216DAVISVP2,2013-02-13 05:55:00,